{"data":{"norad_id":52107,"intl_designator":"2022-029V","name":"STARLINK-3658","alt_names":[],"object_type":"PAYLOAD","status":"ACTIVE","operator":null,"country":"US","launch_date":"2022-03-19","launch_site_code":"AFETR","launch_vehicle":null,"mission":null,"orbit_class":"UNKNOWN","rcs_meters":null,"size_class":null,"mass_kg":null,"dimensions":null,"purposes":["comms"],"wikipedia_slug":null,"has_3d_model":false,"image_url":null,"decayed_at":null,"tle_current":{"epoch":"2026-09-19T17:45:00.904320Z","epoch_age_seconds":121866,"freshness":"FRESH","line1":"1 52107U 22029V   26262.73959380  .00001183  00000+0  46165-4 0  9990","line2":"2 52107  53.1578 272.9266 0000933 101.8991 258.2116 15.34374707250287","mean_motion":15.34374707,"eccentricity":9.33e-5,"inclination_deg":53.1578,"raan_deg":272.9266,"arg_perigee_deg":101.8991,"mean_anomaly_deg":258.2116,"bstar":4.6165e-5,"rev_number":25028,"period_min":93.849305090246,"perigee_km":462.14015995761,"apogee_km":463.41667477449,"semimajor_km":6840.915417366,"source":"CELESTRAK","updated_at":"2026-09-20T09:00:39.986968Z"}}}